Погода Кокпекты

Погода Кокпекты : погода сейчас, прогноз погоды и архив. Всё, что Вы хотите узнать о погоде Кокпекты!

Поиск расширенной информации на нашем сайте:

Другие новости

Новости СМИ2

Главная страница сайта

Новости сайта

02.10.2013

Напоминаем, что на нашем новом сайте вы можете получить высокодетализированные прогнозы погоды по пунктам России, СНГ и мира (включающие важные для авиации метеовеличины, такие как направление и скорость ветра, видимость, явления погоды, количество и форма облачности, нижняя и верхняя граница облачности), а также ознакомиться с разнообразными материалами по авиационной метеорологии и подборкой полезных ссылок на эту тему.

Сайт Метеоцентр.Азия посвящён разработке технологий оптимизации авиаметеорологического обслуживания, включая проектирование и перспективное создание нескольких автоматизированных авиаметеорологических систем:
- система выпуска высокодетальных прогностических карт явлений погоды для нижнего воздушного пространства по России и ближнему зарубежью;
- система верификации прогнозов TAF (выпускаемых синоптиками официальных АМСГ РФ и ближнего зарубежья) и AUTOTAF (выпускаемых сайтом Метеоцентр.Азия) - выявление ошибок, онлайн-сопоставление с фактической погодой METAR, автоматическое внесение коррективов в прогнозы при резком отклонении фактической погоды от прогноза, подсчёт оправдываемости прогнозов по элементам и в целом;
- система обработки, анализа и отображения авиаметеорологической информации для применения провайдерами метеорологической информации.

Рекомендуем: Негабарит заказ трала заказ трала.

Погода Кокпекты - сегодня

Время (UTC), дата Ветер
(°,м/с) 
Видим.   Явления Облачность Т
(°С)
Тd
(°С)
f(%) Тe
(°С)
Pmin
(гПа)
dP
(гПа)
Po
(мм)
O2
(г/м3)
Тmin Tmax R s Состояние
почвы
00 24.03.17 тихо ()   н/о    ясно 
-21 -23.5 80 -21  1041.6  -0.1  729  320           
03 24.03.17 тихо ()   20000 м    ясно 
-16.1 -19.4 76 -16  1039.7  -0.5  729  314        68  неравномерный
сухой снег
100% 
06 24.03.17 340 (С) 20000 м    3/0 средняя 
[Ac trans]
-7.7 -12.1 71 -9  1036.2  -1.2  728  303  -21         
09 24.03.17 030 (СВ) 20000 м    3/0 средняя 
[Ac trans]
-5.5 -11 65 -8  1033.4  -2.1  727  300           
12 24.03.17 020 (С) 20000 м    8/0 средняя 
[Ac trans]
-5.8 -10.5 69 -5  1031.9  -1.5  725  300           
15 24.03.17 360 (С) н/о    5/0 средняя 
[Ac trans]
-10.4 -14.3 73 -10  1032.2  -0.8  725  305    -5.1       
18 24.03.17 350 (С) н/о    4/0 средняя 
[Ac trans]
-12.6 -16.1 75 -13  1031.1  -1.6  724  307    -5.1       
21 24.03.17 360 (С) н/о    6/0 средняя 
[Ac trans]
-11 -14.1 78 -11  1029.9  -0.7  723  305           
00 25.03.17 010 (С) н/о    9/5 1000 м средняя 
[Sc|Ac trans]
-9.1 -12 79 -11  1028.8  -0.6  723  302           
03 25.03.17 360 (С) 20000 м    9/6 1000 м средняя 
[Sc|Ac trans]
-5.4 -9.1 75 -5  1027.6  -0.2  722  298        68  неравномерный
сухой снег
100% 
06 25.03.17 350 (С) 20000 м    9/9 1000 м 
[Sc]
+1.7 -2.9 71 +2  1024.7  -1.1  722  289  -12.6         
09 25.03.17 тихо ()   20000 м    9/9 1000 м 
[Sc]
+2.2 -3 68 +2  1024.6  722  289           
12 25.03.17 350 (С) 20000 м    9/8 1000 м средняя 
[Sc|Ac trans]
+2 -2.6 72 +3  1024.9  0.3  722  289           
15 25.03.17 тихо ()   н/о    10/10 1000 м 
[Sc]
+1.2 -2.5 76 +1  1024.2  -0.9  721  290    +2.3       
18 25.03.17 тихо ()   н/о    10/10 1000 м 
[Sc]
-0.4 -2.8 84 -0  1024.4  -0.1  721  291    +2.3       
21 25.03.17 250 (З) н/о    10/10 1000 м 
[Sc]
-2.1 -3.3 91 -2  1025.5  0.6  722  293           
00 26.03.17 210 (ЮЗ) 20000 м    6/6 1000 м 
[Sc]
-5.5 -6.2 95 -5  1027.3  0.9  722  298           
03 26.03.17 200 (Ю) 20000 м    6/0 средняя, верхняя 
[Ac trans|Ci fib]
-4.2 -6.1 87 -5  1027.3  0.3  722  296        66  неравномерный
сухой снег
100% 
06 26.03.17 тихо ()   20000 м    5/0 верхняя 
[Ci fib]
+1.9 -3.3 68 +2  1025.8  -0.3  722  289  -7         
09 26.03.17 330 (СЗ) 20000 м    6/0 верхняя 
[Ci fib]
+3.1 -2.5 67 +2  1022  -3  720  287           
12 26.03.17 330 (СЗ) 20000 м    9/5 1000 м средняя 
[Sc|Ac trans]
+2.2 -2.6 71 +3  1020.7  -1.4  719  288           
15 26.03.17 тихо ()   н/о    9/9 1000 м 
[Sc]
+1 -3.1 74 +1  1020.6  -0.4  719  289    +3.3       
18 26.03.17 тихо ()   н/о    10/10 600 м кучево-дожд. 
[Cb calv]
+0.9 -2.6 77 +1  1019.1  -1.4  718  288    +3.3       
21 26.03.17 тихо ()   н/о  в посл. час ливневой дождь  10/10 600 м кучево-дожд. 
[Cb calv]
+1.2 -1.9 80 +1  1018.3  -0.7  717  288           
00 27.03.17 150 (ЮВ) 20000 м  {ливн. осадки}  9/6 600 м кучево-дожд., средняя 
[Cb calv|Ac trans]
+0.6 -0.8 90 1022.9  4.2  720  290           
Время (UTC), дата Ветер
(°,м/с) 
Видим.   Явления Облачность Т
(°С)
Тd
(°С)
f(%) Тe
(°С)
Pmin
(гПа)
dP
(гПа)
Po
(мм)
O2
(г/м3)
Тmin Tmax R s Состояние
почвы

Для получения пояснительной информации подведите курсор к названию столбца.

ПОГОДА Кокпекты - архив

Всё, что Вы хотите узнать о погоде Кокпекты - удобно и подробно!

Выберите нужную дату (начиная с 1 января 2015* года) и нажмите кнопку "Найти".
Будут отображены архивные сводки погоды по пункту Кокпекты, начиная с указанной даты.


Отображать данные в формате CSV (для использования в таблицах Excel)


Внимание! Наш архив погоды предназначен исключительно для личного некоммерческого использования в познавательных целях. Если Вам необходимы официальные справки о состоянии погоды (для производственных, юридических, коммерческих и т.п. целей), обращайтесь в органы Росгидромета.

*Примечание: данная дата относится к архиву по метеостанциям СССР (Россия, СНГ, Балтия).
Архив по метеостанциям Зарубежной Европы и Азии (кроме Китая) хранится 10 дней, по другим регионам земного шара (Китай, Африка, Америка, Австралия, Океания) - 1 день.

Кокпекты - район местоположения метеостанции


Название, широта, долгота, высота метеостанции:
Кокпекты 48.8°ш. 82.4°д. 512 м над ур. моря [Казахстан]

Дополнительная информация

В oтличие oт бoльшинства пoгoдных сайтoв мы публикуем пoдрoбную метеoинфoрмацию в детальнoм прoфессиoнальнoм фoрмате.

Характеристики температуры и влажнoсти вoздуха измеряются на высoте 2 м в тени вдали oт зданий и деревьев.
Скoрoсть ветра измеряется на высoте 10 м (на урoвне рoста челoвека скoрoсть ветра ниже в 1.5-2 раза). Если метеoстанция нахoдится в гoрoде или в лесу, тo скoрoсть ветра занижена на 2-4 м/с пo сравнению с oткрытым местoм. Скoрoсть ветра над акватoриями крупных рек и oзёр, а также на вершинах хoлмoв на 2-5 м/с выше, чем в oбычных услoвиях.
Атмoсфернoе давление в разных тoчках местнoсти мoжет значительнo oтличаться oт давления на метеoстанции, в зависимoсти oт услoвий рельефа (при пoдъёме на 10 м давление пoнижается примернo на 1 мм рт.ст.).